Change the Weather History Date:

Tuesday, June 3, 2014

  Actual Average Record
Temperature  
Mean Temperature 62 °F -  
Max Temperature 69 °F 70 °F 88 °F (1948)
Min Temperature 53 °F 42 °F 27 °F (1962)
Degree Days  
Heating Degree Days 4    
Growing Degree Days 12 (Base 50)    
Moisture  
Dew Point 52 °F    
Average Humidity 70    
Maximum Humidity 83    
Minimum Humidity 52    
Precipitation  
Precipitation 0.05 in - - ()
Sea Level Pressure  
Sea Level Pressure 29.73 in    
Wind  
Wind Speed 12 mph (West)    
Max Wind Speed 18 mph    
Max Gust Speed 31 mph    
Visibility 10 miles    
Events Rain    
Averages and records for this station are not official NWS values.
T = Trace of Precipitation, MM = Missing Value Source: NWS Daily Summary

Daily Weather History Graph

Daily Weather History Graph

Search for Another Location

Airport or City:

Trip Planner

Search our weather history database for the weather conditions in past years. The results will help you decide how hot, cold, wet, or windy it might be!

Date:

Astronomy

Jun. 03, 2014 Rise Set
Actual Time 5:52 AM EDT 9:22 PM EDT
Civil Twilight 5:15 AM EDT 9:59 PM EDT
Nautical Twilight 4:26 AM EDT 10:49 PM EDT
Astronomical Twilight 3:22 AM EDT 11:53 PM EDT
Moon 11:25 AM EDT (6/3) 12:40 AM EDT (6/3)
Length of Visible Light 16h 44m
Length of Day
15h 30m
Waxing Crescent, 30% of the Moon is Illuminated
Jun 3
Waxing Crescent
Jun 5
First Quarter
Jun 13
Full
Jun 19
Last Quarter
Jun 27
New

Hourly Weather History & Observations

Time (EDT) Temp. Dew Point Humidity Pressure Visibility Wind Dir Wind Speed Gust Speed Precip Events Conditions
12:54 AM 69.1 °F 62.1 °F 78% 29.66 in 9.0 mi SW 11.5 mph 24.2 mph 0.01 in Rain Light Rain
1:54 AM 69.1 °F 62.1 °F 78% 29.63 in 10.0 mi SSW 12.7 mph - 0.03 in   Clear
2:54 AM 68.0 °F 62.1 °F 81% 29.62 in 10.0 mi SSW 9.2 mph - N/A   Scattered Clouds
3:54 AM 69.1 °F 61.0 °F 75% 29.62 in 10.0 mi SSW 12.7 mph 20.7 mph N/A   Mostly Cloudy
4:54 AM 66.9 °F 60.1 °F 79% 29.62 in 10.0 mi SW 10.4 mph - N/A   Scattered Clouds
5:54 AM 66.0 °F 57.9 °F 75% 29.62 in 10.0 mi WSW 9.2 mph - N/A   Partly Cloudy
6:54 AM 66.0 °F 55.0 °F 68% 29.63 in 10.0 mi WSW 16.1 mph 25.3 mph N/A   Overcast
7:54 AM 64.0 °F 53.1 °F 67% 29.64 in 10.0 mi WSW 18.4 mph 27.6 mph N/A   Mostly Cloudy
8:54 AM 61.0 °F 51.1 °F 70% 29.66 in 10.0 mi WSW 17.3 mph 31.1 mph N/A   Overcast
9:54 AM 57.0 °F 52.0 °F 83% 29.70 in 3.0 mi West 16.1 mph 28.8 mph 0.01 in Rain Light Rain
10:05 AM 57.0 °F 51.1 °F 81% 29.70 in 10.0 mi WSW 9.2 mph 20.7 mph 0.00 in   Overcast
10:22 AM 57.9 °F 52.0 °F 81% 29.70 in 10.0 mi West 11.5 mph 20.7 mph 0.00 in   Overcast
10:45 AM 57.9 °F 50.0 °F 75% 29.72 in 10.0 mi WNW 18.4 mph 28.8 mph 0.00 in   Overcast
10:54 AM 55.9 °F 48.9 °F 77% 29.73 in 10.0 mi WNW 13.8 mph - 0.00 in   Overcast
11:49 AM 57.2 °F 48.2 °F 72% 29.76 in 10.0 mi WNW 11.5 mph - 0.00 in   Overcast
11:54 AM 57.9 °F 48.9 °F 72% 29.75 in 10.0 mi WNW 15.0 mph 20.7 mph 0.00 in   Overcast
12:54 PM 61.0 °F 46.9 °F 60% 29.78 in 10.0 mi WSW 15.0 mph 23.0 mph N/A   Overcast
1:54 PM 60.1 °F 46.9 °F 62% 29.79 in 10.0 mi West 16.1 mph 26.5 mph N/A   Overcast
2:54 PM 63.0 °F 46.9 °F 56% 29.80 in 10.0 mi West 15.0 mph 27.6 mph N/A   Mostly Cloudy
3:54 PM 64.0 °F 46.9 °F 54% 29.80 in 10.0 mi West 12.7 mph 25.3 mph N/A   Mostly Cloudy
4:54 PM 64.9 °F 46.9 °F 52% 29.81 in 10.0 mi WSW 11.5 mph 24.2 mph N/A   Overcast
5:54 PM 64.0 °F 48.0 °F 56% 29.81 in 10.0 mi WSW 16.1 mph 21.9 mph N/A   Overcast
6:54 PM 62.1 °F 48.0 °F 60% 29.81 in 10.0 mi West 11.5 mph - N/A   Overcast
7:54 PM 62.1 °F 48.0 °F 60% 29.83 in 10.0 mi West 11.5 mph - N/A   Partly Cloudy
8:54 PM 57.9 °F 48.0 °F 70% 29.83 in 10.0 mi West 8.1 mph - N/A   Mostly Cloudy
9:54 PM 54.0 °F 48.0 °F 80% 29.86 in 10.0 mi NW 4.6 mph - N/A   Scattered Clouds
11:54 PM 53.1 °F 45.0 °F 74% 29.90 in 10.0 mi WNW 5.8 mph - N/A   Clear